SCP
0 0 0 0 0 0 0 0 0 0 0 0 0 0 0 0 0 0 0 0 0 0 0 0 0 0 0 0 0 0 0 0 0 0 0 0 0 0 0 0 0 0 0 0
0 0 0 0 0 0 0 0 0 0 0 0 0 0 0 0 0 0 0 0 0 0 0 0 0 0 0 0 0 0 0 0 0 0 0 0 0 0 0 0 0 0 0 0
0 0 0 0 0 0 0 0 0 0 0 0 0 0 0 0 0 0 0 0 0 0 0 0 0 0 0 0 0 0 0 0 0 0 0 0 0 0 0 0 0 0 0 0
0 0 0 0 0 0 0 0 0 0 0 0 0 0 0 0 0 0 0 0 0 0 0 0 0 0 0 0 0 0 0 0 0 0 0 0 0 0 0 0 0 0 0 0
0 0 0 -0 -0 0 0 0 0 0 0 0 0 0 0 0 0 0 0 0 0 0 0 0 0 0 0 0 0 0 0 0 0 0 0 0 0 0 0 0 0 0 0 0
0 0 0 -0 -0 0 0 0 0 0 0 0 0 0 0 0 0 0 0 0 0 0 0 0 0 0 0 0 0 0 0 0 0 0 0 0 0 0 0 0 0 0 0 0
0 0 -0 -0 -0 0 0 0 0 0 0 0 0 0 0 0 0 0 0 0 0 0 0 0 0 0 0 0 0 0 0 0 0 0 0 0 0 0 0 0 0 0 0 0
0 0 0 0 0 0 0 0 0 0 0 0 0 0 0 0 0 0 0 0 0 0 0 0 0 0 0 0 0 0 0 0 0 0 0 0 0 0 0 0 0 0 0 0
0 0 0 0 0 0 0 0 0 0 0 0 0 0 0 0 0 0 0 0 0 0 0 0 0 0 0 0 0 0 0 0 0 0 0 0 0 0 0 0 0 0 0 0
0 0 0 0 0 0 0 0 0 0 0 0 0 0 0 0 0 0 0 0 0 0 0 0 0 0 0 0 0 0 0 0 0 0 0 0 0 0 0 0 0 0 0 0
0 0 0 0 0 0 0 0 0 0 0 0 0 0 0 0 0 0 0 0 0 0 0 0 0 0 0 0 0 0 0 0 0 0 0 0 0 0 0 0 0 0 0 0
0 0 0 0 0 0 0 0 0 0 0 0 0 0 0 0 0 0 0 0 0 0 0 0 0 0 0 0 0 0 0 0 0 0 0 0 0 0 0 0 0 0 0 0
0 0 0 0 0 0 0 0 0 0 0 0 0 0 0 0 0 0 0 0 0 0 0 0 0 0 0 0 0 0 0 0 0 0 0 0 0 0 0 0 0 0 0 0
0 0 0 0 0 0 0 0 0 0 0 0 0 0 0 0 0 0 0 0 0 0 0 0 0 0 0 0 0 0 0 0 0 0 0 0 0 0 0 0 0 0 0 0
0 0 0 0 0 0 0 0 0 0 0 0 0 0 0 0 0 0 0 0 0 0 0 0 0 0 0 0 0 0 0 0 0 0 0 0 0 0 0 0 0 0 0 0
0 0 0 0 0 0 0 0 0 0 0 0 0 0 0 0 0 0 0 0 0 0 0 0 0 0 0 0 0 0 0 0 0 0 0 0 0 0 0 0 0 0 0 0
0 0 0 0 0 0 0 0 0 0 0 0 0 0 0 0 0 0 0 0 0 0 0 0 0 0 0 0 0 0 0 0 0 0 0 0 0 0 0 0 0 0 0 0
0 0 0 0 0 0 0 0 0 0 0 0 0 0 0 0 0 0 0 0 0 0 0 0 0 0 0 0 0 0 0 0 0 0 0 0 0 0 0 0 0 0 0 0
0 0 0 0 0 0 0 0 0 0 0 0 0 0 0 0 0 0 0 0 0 0 0 0 0 0 0 0 0 0 0 0 0 0 0 0 0 0 0 0 0 0 0 0
0 0 0 0 0 0 0 0 0 0 0 0 0 0 0 0 0 0 0 0 0 0 0 0 0 0 0 0 0 0 0 0 0 0 0 0 0 0 0 0 0 0 0 0
-0 -0 -0 0 0 0 0 0 0 0 0 0 0 0 0 0 0 0 0 0 0 0 0 0 0 0 0 0 0 0 0 0 0 0 0 0 0 0 0 0 0 0 0 0
-0 -0 -0 -0 0 0 0 0 0 0 0 0 0 0 0 0 0 0 0 0 0 0 0 0 0 0 0 0 0 0 0 0 0 0 0 0 0 0 0 0 0 0 0 0
-0 -0 -0 -0 -0 -0 0 0 0 0 0 0 0 0 0 0 0 0 0 0 0 0 0 0 0 0 0 0 0 0 0 0 0 0 0 0 0 0 0 0 0 0 0 0
-0 -0 -0 -0 -0 -0 -0 -0 0 0 0 0 0 0 0 0 0 0 0 0 0 0 0 0 0 0 0 0 0 0 0 0 0 0 0 0 0 0 0 0 0 0 0 0
0 0 -0 -0 -0 -0 -0 -0 -0 0 0 0 0 0 0 0 0 0 0 0 0 0 0 0 0 0 0 0 0 0 0 0 0 0 0 0 0 0 0 0 0 0 0 0
0 0 -0 0 0 0 0 0 0 0 0 0 0 0 0 0 0 0 0 0 0 0 0 0 0 0 0 0 0 0 0 0 0 0 0 0 0 0 0 0 0 0 0 0
0 0 0 0 0 0 0 0 0 0 0 0 0 0 0 0 0 0 0 0 0 0 0 0 0 0 0 0 0 0 0 0 0 0 0 0 0 0 0 0 0 0 0 0
Wind_Speed
5 5 4 5 5 5 5 7 8 8 10 11 12 12 11 9 8 7 6 5 4 3 2 2 1 1 1 0 0 1 2 1 1 1 1 1 2 2 2 2 3 3 3 3
2 2 2 3 5 5 5 5 5 7 6 7 7 7 8 9 10 8 7 6 5 4 3 2 2 1 1 0 0 1 2 0 1 1 1 2 2 2 2 2 3 3 3 3
2 2 2 4 7 7 6 6 10 10 9 8 8 11 13 12 11 9 8 7 6 5 3 3 2 2 1 1 1 2 1 0 1 1 1 2 3 2 3 3 3 3 4 3
1 1 4 9 5 7 7 6 7 8 9 14 13 12 10 9 11 10 9 8 6 5 4 2 2 2 2 2 2 2 1 1 1 1 2 2 2 3 3 3 3 3 4 4
3 3 6 7 3 6 7 5 6 9 10 9 8 6 2 6 9 10 9 7 6 5 4 3 3 2 3 3 2 2 2 1 2 1 2 2 3 4 3 3 3 3 4 4
4 3 6 8 5 3 6 3 5 9 13 12 11 7 8 8 8 7 7 6 6 5 4 4 2 3 4 2 2 1 1 2 2 1 1 2 3 3 3 3 3 4 4 4
4 4 8 7 2 5 5 9 6 10 13 14 11 9 7 9 8 8 7 7 7 6 5 4 3 4 3 1 0 2 2 1 2 2 2 2 2 2 3 3 3 3 4 5
5 4 10 5 5 7 8 3 6 9 10 10 7 6 9 10 9 9 7 6 7 6 4 3 3 4 3 1 2 1 1 1 2 3 3 2 2 3 3 3 3 4 4 5
9 9 6 4 6 5 5 5 5 8 8 10 8 8 9 9 9 8 8 7 5 6 4 2 2 4 3 3 2 1 1 2 2 3 3 2 2 3 3 3 2 3 3 4
2 5 3 2 2 3 4 6 6 8 9 10 9 9 9 9 8 7 7 6 5 6 5 3 3 3 3 3 2 1 1 2 2 2 3 3 2 2 2 3 3 4 4 5
2 3 1 2 2 4 4 6 7 7 7 10 11 10 9 9 8 8 6 5 5 6 5 4 3 3 3 2 2 1 2 3 3 3 3 3 3 3 3 4 4 5 4 4
7 8 6 7 5 5 7 7 8 8 7 7 10 11 10 8 8 7 7 6 5 5 5 4 4 4 3 3 2 2 2 3 3 3 3 3 3 5 6 6 9 10 9 9
7 6 6 5 5 6 7 7 8 9 10 9 7 9 10 7 7 7 7 6 7 6 6 5 4 4 4 3 3 3 3 3 3 3 3 3 3 4 6 7 8 9 11 12
3 3 3 4 5 6 6 6 6 6 7 8 8 7 7 6 6 7 7 7 6 5 5 4 4 4 4 4 3 3 3 4 3 3 3 3 4 4 4 5 6 6 7 11
3 4 6 5 5 5 6 7 7 6 6 6 6 8 8 8 8 7 6 5 5 4 4 4 4 5 4 4 4 4 3 3 3 3 3 4 4 4 5 5 6 6 6 7
3 1 4 6 7 7 6 7 8 7 7 7 7 8 8 8 7 6 5 5 6 5 5 5 5 5 4 4 4 4 4 6 5 3 3 4 4 4 5 5 6 6 6 7
4 4 4 5 6 6 7 7 8 8 8 8 9 8 7 7 6 5 5 5 6 6 5 6 6 5 4 4 4 3 3 5 7 4 3 4 4 5 5 5 6 6 7 8
7 7 7 8 8 6 6 6 7 7 8 7 7 7 8 8 8 7 6 4 3 3 5 6 5 4 4 4 4 3 3 4 4 4 4 4 5 5 5 6 7 8 7 8
2 2 3 4 5 6 6 5 6 6 6 7 7 8 8 8 7 6 5 5 5 5 6 6 7 5 5 6 5 3 4 4 4 5 5 7 6 5 5 6 7 7 7 7
2 3 3 2 2 3 4 4 4 4 5 6 6 6 5 6 6 6 5 6 6 6 6 6 5 5 5 6 6 3 4 5 5 5 5 5 6 6 6 7 7 8 7 7
3 3 3 3 2 2 3 3 4 4 4 5 6 7 7 6 6 6 5 5 6 6 6 7 5 5 5 6 6 4 4 4 5 5 5 6 6 6 6 7 7 8 7 7
2 2 2 2 2 1 1 2 2 3 3 4 5 5 5 5 5 5 6 6 6 7 4 4 4 6 7 6 3 3 4 5 5 5 5 6 6 6 7 7 8 8 7 7
1 2 2 2 3 2 1 0 1 2 3 5 5 6 6 6 5 5 5 5 4 6 4 4 7 9 9 4 3 4 5 5 5 6 6 6 6 7 7 8 8 8 8 8
1 1 2 1 1 1 1 2 2 2 3 4 5 6 5 4 4 5 5 6 6 6 4 6 9 9 7 3 4 4 5 6 6 6 6 6 6 6 7 7 8 7 7 9
2 2 2 1 2 3 4 3 2 3 2 3 4 4 4 4 5 5 4 5 6 6 4 6 9 9 5 4 4 5 5 6 6 6 6 6 6 6 7 7 7 7 7 7
3 3 3 4 4 3 3 2 3 3 3 3 3 3 3 3 4 3 3 4 6 6 5 4 5 6 5 5 6 6 6 7 7 6 6 6 7 7 7 7 9 7 7 7
3 3 2 2 3 3 3 3 3 4 4 4 3 3 3 3 3 3 4 4 4 4 4 5 5 5 5 5 6 6 6 6 6 6 6 6 6 7 7 9 7 7 7 7
Wind_Direction
220 223 193 196 202 186 171 174 175 199 182 193 184 175 172 164 156 151 151 151 152 156 162 150 136 153 157 200 182 112 105 100 262 281 308 326 327 314 312 319 326 323 334 332
285 251 208 208 204 182 181 171 162 151 199 200 173 155 156 162 162 163 165 165 162 155 143 145 156 157 131 107 96 107 111 193 287 351 359 333 315 314 314 312 313 322 320 316
263 299 49 248 218 190 188 179 160 181 203 163 158 171 176 175 173 173 170 165 165 164 166 170 177 162 142 140 94 94 93 347 334 342 332 310 317 330 312 302 306 309 306 307
176 69 231 244 246 189 177 197 186 176 171 171 176 179 179 172 171 173 172 167 167 165 161 160 149 130 110 81 73 73 47 342 321 325 315 318 325 315 302 297 292 288 292 295
132 199 269 288 250 169 160 223 193 167 164 160 130 106 174 191 173 173 172 167 165 164 153 140 130 123 101 76 64 57 28 345 318 318 324 324 316 303 297 298 295 287 288 292
135 176 236 249 250 166 111 241 217 166 158 151 133 155 216 191 166 159 155 154 152 144 128 128 136 118 100 88 68 14 289 294 306 309 317 307 295 294 294 291 285 294 299 296
165 210 259 253 225 108 147 231 199 170 162 162 174 190 176 155 155 153 149 148 144 137 136 152 151 123 113 104 262 261 266 298 323 315 302 290 291 297 300 301 306 305 301 299
156 192 252 232 147 178 210 201 157 166 168 167 160 136 140 150 151 148 144 142 143 140 146 157 149 132 132 204 254 265 287 315 312 307 311 328 316 310 311 311 309 306 307 308
184 209 240 217 195 196 159 146 156 161 162 149 141 148 150 153 153 153 151 151 149 148 151 166 168 150 162 229 246 257 308 305 301 304 304 302 300 306 315 316 305 302 304 304
213 256 252 212 155 145 147 148 151 150 148 148 151 154 152 154 156 157 156 157 152 150 158 184 197 185 195 220 216 189 267 283 292 296 298 302 299 292 297 297 295 297 300 297
240 266 327 291 206 162 134 126 129 136 148 157 151 155 160 162 165 165 163 163 161 165 176 194 201 211 222 220 190 209 258 275 284 282 282 292 292 279 277 265 262 277 277 275
215 213 190 218 214 170 150 155 155 147 145 154 157 161 161 167 170 167 166 165 166 172 181 195 199 214 229 224 198 202 247 267 272 279 281 282 292 305 295 281 291 290 285 284
210 203 194 201 188 173 162 164 164 160 160 161 162 160 160 163 169 166 166 170 179 185 191 195 200 218 232 227 211 212 233 252 262 270 277 280 280 286 300 306 299 295 296 297
196 148 170 187 187 175 160 157 150 147 156 159 159 156 155 152 157 166 178 186 185 183 190 195 202 224 233 223 218 229 237 256 264 257 265 272 275 276 278 289 303 303 301 299
225 202 196 186 165 160 150 141 141 152 155 154 153 156 158 161 170 180 183 176 169 179 196 199 209 232 235 219 217 230 237 247 252 254 260 269 276 280 280 282 284 290 297 301
229 200 166 164 170 170 162 158 162 172 169 165 164 168 171 171 172 173 174 169 170 193 207 207 222 235 231 220 224 236 244 264 271 264 265 274 278 281 283 283 285 286 288 289
184 195 190 188 186 182 182 180 178 177 174 173 178 173 164 159 162 176 191 193 192 202 206 209 225 234 227 218 219 233 242 263 280 282 264 267 273 276 278 280 283 284 280 280
197 197 190 183 180 179 182 179 176 174 177 181 171 162 164 171 183 195 202 199 198 220 229 225 226 226 226 224 222 226 233 244 253 261 267 270 274 273 274 276 280 284 285 287
140 154 171 177 177 173 176 178 177 176 173 165 164 174 183 190 194 198 194 188 201 226 241 234 232 220 226 234 234 225 235 248 258 265 267 276 280 277 276 277 279 281 284 288
97 104 111 117 139 158 168 169 165 167 172 168 168 175 187 198 196 194 192 204 214 219 226 230 227 226 231 237 245 231 237 248 258 267 271 271 275 277 277 279 282 284 284 283
115 112 113 118 115 129 153 159 160 173 181 174 177 189 198 204 199 190 191 221 239 233 230 235 228 229 232 240 249 237 243 253 260 266 269 271 273 275 277 280 282 282 282 283
135 131 132 131 124 129 159 155 168 188 193 194 196 195 194 202 205 207 211 217 229 237 231 225 228 236 244 251 236 238 248 256 262 265 267 269 271 273 275 277 278 280 279 280
160 163 163 167 173 194 221 189 181 200 210 208 202 198 200 204 199 200 231 236 227 235 225 222 233 246 257 250 234 242 252 259 263 265 266 269 270 270 273 276 276 277 278 279
198 216 223 208 160 153 229 252 243 229 223 220 215 210 202 203 223 223 220 229 229 230 221 233 247 259 263 243 241 248 255 259 262 265 266 268 270 271 274 276 278 278 278 281
216 218 217 195 202 221 230 239 250 251 239 239 239 228 216 204 209 223 220 222 231 233 232 248 261 270 263 246 248 254 259 261 266 269 262 268 270 272 274 276 278 280 281 282
225 221 221 219 220 224 223 219 229 239 234 241 251 247 239 231 222 215 214 225 234 243 241 242 249 256 247 245 249 254 257 269 276 272 267 270 272 273 274 276 277 277 280 281
236 233 233 242 245 228 216 213 221 233 227 219 235 244 240 238 234 231 229 231 236 239 242 245 244 244 246 248 252 255 258 260 261 262 266 269 271 272 275 276 276 276 279 281